Location: Sihaung
(22.8641°N, 94.0549°E)
Time: 12:02:14
(UTC+00:00)

ATLAS 2AS CENTAUR R/B - Pass Details

Date: 03 March 2021
Orbit: 947 x 1265 km, 63.7° (Epoch: 10 April)

Event Time Altitude Azimuth Distance (km) Brightness Sun altitude
Rises 23:00:35 0° 205° (SSW) 4,105 5.5 -15.1°
Reaches altitude 10° 23:03:17 10° 205° (SSW) 3,173 4.9 -14.5°
Maximum altitude 23:11:03 89° 296° (WNW) 1,262 3.0 -12.7°
Drops below altitude 10° 23:19:00 10° 26° (NNE) 3,245 5.5 -10.9°
Sets 23:21:47 0° 26° (NNE) 4,203 6.1 -10.3°
